User: anonymous   Login
Location: Newark
(42.9260°N, 89.3850°W)
Time: 00:35:41
(UTC+00:00)
Language:

STARLINK-1052 - Orbit

View from above orbital plane
View from above orbital plane
View from above satellite
View from above satellite

Ground track
Ground track

The orbit data is extracted from the following two-line orbital elements,

1 44739U 19074AC  20047.83334491  .00441907  00000-0  28846-1 0  9990
2 44739  52.9951  60.5324 0001735  55.8408 179.3719 15.05480982 15135
Epoch (UTC): 16 February 2020 20:00:01
Eccentricity: 0.0001735
inclination: 52.9951°
perigee height: 549 km
apogee height: 551 km
right ascension of ascending node: 60.5324°
argument of perigee: 55.8408°
revolutions per day: 15.05480982
mean anomaly at epoch: 179.3719°
orbit number at epoch: 1513

The dashed part of the orbit path shows where the satellite is in the earth's shadow,  

DLR